Regional Weather Roundup
Issued by NWS Grand Forks, ND

Home | Current Version | Previous Version | Graphics & Text | Print | Product List | Glossary On
Versions: 1 2 3 4 5 6 7 8 9 10 11 12 13 14 15 16 17 18 19 20 21 22 23 24 25 26 27 28 29 30 31 32 33 34 35 36 37 38 39 40 41 42 43 44 45 46 47 48 49 50
000
ASUS43 KFGF 210931
RWRFGF
PRAIRIE TO PINES  WEATHER ROUNDUP
NATIONAL WEATHER SERVICE EASTERN NORTH DAKOTA/GRAND FORKS ND
300 AM CST SUN JAN 21 2018

 **SATELLITE DATA USED TO AUGMENT SKY COVER AT AUTOMATED STATIONS**
 *****  WEATHER ACROSS EASTERN NORTH DAKOTA  *****

CITY           SKY/WX    TMP DP  RH WIND       PRES   REMARKS
GRAND FORKS    FAIR      19  17  92 W8        29.98R WCI   9
GRAND FRKS AFB FAIR      21  17  86 NW7       29.99R WCI  12
DEVILS LAKE    FAIR      15  13  91 NW6       29.98R WCI   6
FARGO          FAIR      26  23  88 NW5       29.97S WCI  20
WAHPETON ARPT  PTSUNNY   28  27  93 NW6       29.97S WCI  22
$$

 ***** WEATHER ACROSS CENTRAL AND WESTERN NORTH DAKOTA  *****

CITY           SKY/WX    TMP DP  RH WIND       PRES   REMARKS
BISMARCK       FAIR      18  16  92 CALM      30.00R
MINOT          FAIR      20  16  84 SW5       29.97R WCI  13
JAMESTOWN      FAIR      22  19  89 NW7       29.97R WCI  13
MINOT AFB      FAIR      14  11  89 NW5       29.96R WCI   6
GARRISON         N/A     13  11  92 W3        29.98R
WILLISTON      FAIR       9   6  88 CALM      29.98R
DICKINSON      FAIR      21  16  81 W10       29.94F WCI  10
HETTINGER      FAIR      23  17  78 W3        29.98R
$$

 *****  OTHER AIRPORT OBSERVATIONS IN OUR AREA  *****

CITY           SKY/WX    TMP DP  RH WIND       PRES   REMARKS
WALHALLA       FAIR      25  25 100 N6        30.00R WCI  18
GRAFTON AIRPOR NOT AVBL
VALLEY CITY AR NOT AVBL
CANDO          FAIR      12  12 100 NW5       29.99S WCI   4
CAVALIER APRT    N/A     21  21 100 N10       30.00R WCI  10
GWINNER          N/A     30  27  86 NW8       29.97R WCI  23
SHEYENNE NWR     N/A     30  29  95 NW2       29.95S
ROLLA          FAIR      18  18 100 NW8       29.96R WCI   7
 ***** THE ABOVE OBSERVATIONS ARE NON NWS ARE NOT QUALITY
       CONTROLLED AND MAY MIS-REPORT RAIN FOR SNOW...
$$

  *****  WEATHER ACROSS NORTHERN MINNESOTA  *****

CITY           SKY/WX    TMP DP  RH WIND       PRES   REMARKS
FLAG ISLAND    CLOUDY    23  21  93 NW6       29.94S FOG     WCI  16
WARROAD        CLOUDY    21  18  86 CALM      29.96R
ROSEAU         MOCLDY    14  10  85 CALM      29.96R
HALLOCK        FOG       18  16  93 NW5       29.99R VSB 3/4 WCI  11
THF RVR FALLS  FOG       18  16  92 CALM      29.97S VSB 1/2
BAUDETTE       FOG       17  16  95 NW5       29.93R VSB 3/4 WCI  10
WASKISH        FAIR      21  21 100 W6        29.94S WCI  14
CROOKSTON      FOG       19  18  93 CALM      29.99S VSB 1/4
STEPHEN NDAWN    N/A     18  18 100 NW3         N/A
GREENBUSH NDAW   N/A     12  10  92 W5          N/A  WCI   4
$$
  *****  WEATHER ACROSS CENTRAL AND WEST MINNESOTA  *****

CITY           SKY/WX    TMP DP  RH WIND       PRES   REMARKS
FOSSTON        FOG       16  14  93 CALM      29.95F VSB<1/4
BEMIDJI        FAIR      13  11  92 CALM      29.93F
PARK RAPIDS    FAIR      22  17  81 CALM      29.93S
ELBOW LAKE     FAIR      30  28  93 NW5       29.96S
WADENA         FAIR      27  27 100 CALM      29.94F
DETROIT LAKES  FAIR      21  21 100 CALM      29.96S
MOORHEAD       FAIR      27  23  86 CALM      29.98S
FERGUS FALLS   FAIR      28  28 100 N5        29.95F WCI  23
MORRIS MN      CLOUDY    34  28  80 NW5       29.95S
STAPLES        FAIR      25  23  93 CALM      29.95F
$$
  *****  WEATHER ELSEWHERE ACROSS MINNESOTA  *****

CITY           SKY/WX    TMP DP  RH WIND       PRES   REMARKS
DULUTH         FAIR      29  25  85 NW7       29.93R WCI  22
INTRNTL FALLS  FAIR      20  16  84 CALM      29.92R FOG
ELY            FAIR      12  12 100 CALM      29.92R FOG
CLOQUET        FAIR      28  25  86 NW6       29.95R WCI  22
WHEATON        FAIR      34  27  75 NW5       29.98F
BRAINERD       FAIR      28  25  88 CALM      29.96R
HIBBING        FAIR      12   8  84 CALM      29.94S FOG
ALEXANDRIA     MOCLDY    32  29  88 N5        29.94F
SAINT CLOUD    CLOUDY    33  29  85 MISG      29.96R
MINNEAPOLIS    CLOUDY    34  31  88 CALM      29.96S
$$

  *****  WEATHER ACROSS SOUTH DAKOTA  *****

CITY           SKY/WX    TMP DP  RH WIND       PRES   REMARKS
SIOUX FALLS    FAIR      31  28  89 NE8       29.92S WCI  23
BROOKINGS      CLOUDY    35  29  78 N5        29.94S
WATERTOWN      CLOUDY    32  29  88 N6        29.94R
HURON          CLOUDY    36  31  82 N9        29.96R
SISSETON         N/A     33  27  78 NW6       29.95S
ABERDEEN       CLOUDY    32  27  81 CALM      29.98R
MITCHELL       CLOUDY    36  33  89 N7        29.95S
PIERRE         CLOUDY    33  32  96 NW6       29.97S
MOBRIDGE       FAIR      28  24  85 N8        29.94S WCI  20
RAPID CITY     LGT SNOW  30  27  88 W7        30.00R FOG     WCI  23
$$

  *****  SOME WEATHER IN NEARBY STATES *****

CITY           SKY/WX    TMP DP  RH WIND       PRES   REMARKS
GLASGOW MT     FAIR      17  14  88 SE6       29.96R WCI   9
GREAT FALLS MT FAIR      26  17  68 S14       29.96S WCI  14
CHEYENNE WY    LGT SNOW  24  24 100 NE7       29.81R VSB 1   WCI  16
SCOTTSBLUFF NE CLOUDY    31  29  92 NE15      29.88R WCI  20
OMAHA NE       CLOUDY    37  34  89 N7        29.85S
DES MOINES IA  CLOUDY    39  36  89 NE7       29.87S
DAVENPORT IA   CLOUDY    41  37  86 SE6       29.95S
CHICAGO IL     CLOUDY    38  35  89 SE5       29.98F
EAU CLAIRE WI  CLOUDY    27  26  96 CALM      29.96R FOG
LA CROSSE WI   CLOUDY    22  19  89 CALM      29.95S FOG
$$

  *****  SOME NATIONAL WEATHER *****

CITY           SKY/WX    TMP DP  RH WIND       PRES   REMARKS
LA GUARDIA NY  FAIR      43  27  53 W3        30.07S
RALEIGH NC     FAIR      34  31  88 CALM      30.19F
ATLANTA GA     FAIR      45  37  73 W7        30.23F
NEW ORLEANS LA FAIR      52  51  97 E7        30.14F
OKLAHOMA CITY  FAIR      52  50  93 S15       29.80S
ALBUQUERQUE NM FAIR      34  31  88 SE8       29.86F
SALT LAKE CITY MOCLDY    25  20  81 N7        30.01R WCI  17
LOS ANGELES CA FAIR      53  25  33 N6        30.17R
BOISE ID       FAIR      29  25  85 SW3       30.17R
SEATTLE WA     CLOUDY    49  35  58 S17G33    29.91F
$$

*** WEATHER ACROSS MANITOBA...SASKATCHEWAN AND ONTARIO ***
                ***ONTARIO***

CITY           SKY/WX    TMP DP  RH WIND       PRES   REMARKS
GERALDTON      FLURRIES  10   7  85 NE2       29.98R
THUNDER BAY    FOG       23  23 100 W3        29.96S VSB 1/4
SIOUX LOOKOUT  FLURRIES  18  16  93 SE2       29.92R
TORONTO        CLOUDY    30  27  86 SW5       30.05F
BIG TROUT LK   FLURRIES  -4  -8  84 NE5       30.15R WCI -15
PICKLE LAKE    NOT AVBL
DRYDEN         CLOUDY    23  21  93 NE7       29.90R WCI  15
KENORA         MOCLDY    23  21  93 NW5       29.91R WCI  17
$$
                *** MANITOBA***

CITY           SKY/WX    TMP DP  RH WIND       PRES   REMARKS
BRANDON        CLOUDY    21  18  86 E7        29.99R WCI  13
DAUPHIN        CLOUDY    14  12  92 NE3       30.03S
ISLAND LAKE    CLOUDY     0  -6  78 E10       30.12R WCI -17
PILOT MOUND      N/A     21  19  93 N1          N/A
THE PAS        FLURRIES   0  -6  78 E5        30.07R WCI -10
THOMPSON       FLURRIES  -4  -9  77 E7        30.18R WCI -18
WINNIPEG       FLURRIES  19  16  86 N8        30.00R WCI   9
LYNN LAKE      LGT SNOW  -4  -6  92 E7        30.08R WCI -18
CHURCHILL      FLURRIES -11 -15  84 N12       30.36R WCI -31
GILLAM         CLEAR    -15 -20  76 NE7       30.28  WCI -31
$$
                ***SASKATCHEWAN***

CITY           SKY/WX    TMP DP  RH WIND       PRES   REMARKS
ESTEVAN        CLEAR      9   7  92 S6        29.96S WCI  -1
KINDERSLEY     CLEAR     12  10  92 W9        29.85R WCI   0
LLOYDMINSTER   CLOUDY    21  19  93 SW5       29.86S WCI  15
PRINCE ALBERT  LGT SNOW  19  16  86 E5        29.94S WCI  13
REGINA         PTCLDY     9   7  92 E5        29.94R WCI   0
YORKTON        CLOUDY    21  18  86 NE3       29.95S
N. BATTLEFORD  CLOUDY    19  18  93 SW2       29.91S
LA RONGE       LGT SNOW   9   7  92 NE6       29.95R WCI  -1
SASKATOON      CLOUDY    16  12  86 S2        29.93R
SWIFT CURRENT  CLEAR     21  16  79 SW13      29.85S WCI   9
$$
NOTE: THESE ARE AUTOMATED STATIONS WITH LIMITED QUALITY CONTROL
      "FAIR" INDICATES FEW OR NO CLOUDS BELOW 12,000 FEET WITH NO
      SIGNIFICANT WEATHER AND/OR OBSTRUCTIONS TO VISIBILITY.
      SKY/WX - SKY CONDITION AND SIGNIFICANT WEATHER.
      TMP - AIR TEMPERATURE.    DP   - DEWPOINT TEMPERATURE.
      RH  - RELATIVE HUMIDITY.  PRES - PRESSURE.
      HX  - HEAT INDEX.         WCI  - WIND CHILL INDEX.
$




USA.gov is the U.S. government's official web portal to all federal, state and local government web resources and services.